| time (UTC) | temp F | wind direction | speed MPH | gust MPH | rain 1hr in | rain 24hr in | rain mn in | humidity % | barometer mb |
| 20260505083025 | 54 | 200 | 2.0 | 12.0 | 0.00 | 0.08 | 0.08 | 82 | 1010.6 |
| 20260505082505 | 54 | 160 | 2.0 | 12.0 | 0.00 | 0.08 | 0.08 | 82 | 1010.5 |
| 20260505082008 | 53 | 172 | 4.0 | 7.0 | 0.00 | 0.08 | 0.08 | 83 | 1010.4 |
| 20260505081525 | 54 | 167 | 1.0 | 2.0 | 0.00 | 0.08 | 0.08 | 80 | 1010.1 |
| 20260505081008 | 54 | 359 | 0.0 | 2.0 | 0.00 | 0.08 | 0.08 | 79 | 1009.8 |
| 20260505080507 | 54 | 1 | 0.0 | 2.0 | 0.00 | 0.08 | 0.08 | 81 | 1009.7 |
| 20260505080025 | 54 | 360 | 0.0 | 2.0 | 0.00 | 0.08 | 0.08 | 81 | 1009.8 |
| 20260505075504 | 54 | 353 | 0.0 | 2.0 | 0.00 | 0.08 | 0.08 | 83 | 1009.8 |
| 20260505075004 | 53 | 339 | 0.0 | 2.0 | 0.00 | 0.08 | 0.08 | 83 | 1009.8 |
| 20260505074512 | 53 | 57 | 0.0 | 2.0 | 0.05 | 0.08 | 0.08 | 83 | 1009.8 |
| 20260505074004 | 54 | 101 | 0.0 | 2.0 | 0.07 | 0.08 | 0.08 | 83 | 1009.8 |
| 20260505073505 | 54 | 94 | 0.0 | 2.0 | 0.08 | 0.08 | 0.08 | 82 | 1009.8 |
| 20260505073019 | 55 | 91 | 0.0 | 2.0 | 0.08 | 0.08 | 0.08 | 81 | 1009.8 |
| 20260505072509 | 55 | 89 | 0.0 | 2.0 | 0.08 | 0.08 | 0.08 | 79 | 1009.7 |
| 20260505072005 | 56 | 89 | 0.0 | 2.0 | 0.08 | 0.08 | 0.08 | 79 | 1009.6 |
| 20260505071522 | 56 | 89 | 0.0 | 2.0 | 0.08 | 0.08 | 0.08 | 77 | 1009.6 |
| 20260505071007 | 56 | 188 | 0.0 | 2.0 | 0.08 | 0.08 | 0.08 | 77 | 1009.7 |
| 20260505070511 | 57 | 1 | 0.0 | 2.0 | 0.08 | 0.08 | 0.08 | 77 | 1009.7 |
| 20260505070026 | 58 | 79 | 1.0 | 6.0 | 0.08 | 0.08 | 0.08 | 76 | 1009.8 |
| 20260505065509 | 58 | 96 | 1.0 | 11.0 | 0.08 | 0.08 | 0.08 | 73 | 1010.0 |
| 20260505065009 | 59 | 143 | 4.0 | 17.0 | 0.08 | 0.08 | 0.08 | 71 | 1010.1 |
| 20260505064528 | 60 | 243 | 4.0 | 13.0 | 0.03 | 0.03 | 0.03 | 66 | 1010.4 |
| 20260505064004 | 60 | 101 | 5.0 | 11.0 | 0.01 | 0.01 | 0.01 | 63 | 1010.3 |
| 20260505063505 | 59 | 97 | 5.0 | 11.0 | 0.00 | 0.00 | 0.00 | 64 | 1009.9 |
| 20260505063017 | 58 | 117 | 2.0 | 6.0 | 0.00 | 0.00 | 0.00 | 66 | 1009.8 |
| 20260505062506 | 57 | 84 | 0.0 | 5.0 | 0.00 | 0.00 | 0.00 | 67 | 1009.8 |
| 20260505062008 | 57 | 42 | 1.0 | 4.0 | 0.00 | 0.00 | 0.00 | 67 | 1009.7 |
| 20260505061526 | 57 | 14 | 1.0 | 2.0 | 0.00 | 0.00 | 0.00 | 68 | 1009.6 |
| 20260505061003 | 57 | 44 | 0.0 | 2.0 | 0.00 | 0.00 | 0.00 | 67 | 1009.7 |
| 20260505060508 | 57 | 60 | 0.0 | 2.0 | 0.00 | 0.00 | 0.00 | 67 | 1009.7 |
| 20260505060024 | 57 | 63 | 0.0 | 2.0 | 0.00 | 0.00 | 0.00 | 67 | 1009.8 |
| 20260505055509 | 57 | 77 | 0.0 | 2.0 | 0.00 | 0.00 | 0.00 | 67 | 1009.9 |
| 20260505055010 | 58 | 58 | 0.0 | 2.0 | 0.00 | 0.00 | 0.00 | 66 | 1010.0 |
| 20260505054526 | 58 | 58 | 0.0 | 2.0 | 0.00 | 0.00 | 0.00 | 65 | 1010.0 |
| 20260505054014 | 59 | 40 | 0.0 | 2.0 | 0.00 | 0.00 | 0.00 | 64 | 1010.1 |
| 20260505053508 | 59 | 56 | 1.0 | 3.0 | 0.00 | 0.00 | 0.00 | 64 | 1010.1 |
| 20260505053014 | 60 | 65 | 1.0 | 3.0 | 0.00 | 0.00 | 0.00 | 63 | 1010.2 |
| 20260505052505 | 60 | 72 | 1.0 | 4.0 | 0.00 | 0.00 | 0.00 | 63 | 1010.2 |
| 20260505052009 | 60 | 77 | 1.0 | 4.0 | 0.00 | 0.00 | 0.00 | 62 | 1010.2 |
| 20260505051531 | 60 | 83 | 2.0 | 4.0 | 0.00 | 0.00 | 0.00 | 62 | 1010.1 |
| 20260505051011 | 60 | 77 | 3.0 | 5.0 | 0.00 | 0.00 | 0.00 | 62 | 1010.1 |
| 20260505050509 | 60 | 83 | 2.0 | 6.0 | 0.00 | 0.00 | 0.00 | 61 | 1010.2 |
| 20260505041517 | 61 | 76 | 2.0 | 5.0 | 0.00 | 0.00 | 0.00 | 61 | 1010.0 |
| 20260505041005 | 61 | 77 | 1.0 | 6.0 | 0.00 | 0.00 | 0.00 | 61 | 1010.0 |
| 20260505040505 | 61 | 83 | 2.0 | 6.0 | 0.00 | 0.00 | 0.00 | 61 | 1010.0 |
| 20260505040025 | 61 | 79 | 3.0 | 6.0 | 0.00 | 0.00 | 0.00 | 61 | 1010.0 |
| 20260505035508 | 61 | 83 | 2.0 | 8.0 | 0.00 | 0.00 | 0.00 | 61 | 1010.0 |
| 20260505035008 | 61 | 71 | 4.0 | 8.0 | 0.00 | 0.00 | 0.00 | 62 | 1010.0 |
| 20260505034529 | 60 | 64 | 1.0 | 5.0 | 0.00 | 0.00 | 0.00 | 63 | 1010.1 |
| 20260505034007 | 60 | 36 | 1.0 | 5.0 | 0.00 | 0.00 | 0.00 | 62 | 1010.1 |
| 20260505033511 | 60 | 79 | 1.0 | 4.0 | 0.00 | 0.00 | 0.00 | 62 | 1010.1 |
| 20260505033029 | 61 | 89 | 1.0 | 3.0 | 0.00 | 0.00 | 0.00 | 61 | 1010.0 |
| 20260505032507 | 61 | 79 | 1.0 | 4.0 | 0.00 | 0.00 | 0.00 | 61 | 1010.1 |
| 20260505032007 | 61 | 49 | 1.0 | 6.0 | 0.00 | 0.00 | 0.00 | 60 | 1010.0 |
| 20260505031527 | 61 | 98 | 3.0 | 6.0 | 0.00 | 0.00 | 0.00 | 60 | 1010.1 |
| 20260505031004 | 62 | 72 | 1.0 | 5.0 | 0.00 | 0.00 | 0.00 | 60 | 1010.1 |
| 20260505030504 | 62 | 77 | 2.0 | 5.0 | 0.00 | 0.00 | 0.00 | 59 | 1010.1 |
| 20260505030021 | 62 | 60 | 1.0 | 5.0 | 0.00 | 0.00 | 0.00 | 60 | 1010.1 |
| 20260505025511 | 62 | 73 | 3.0 | 5.0 | 0.00 | 0.00 | 0.00 | 59 | 1010.1 |
| 20260505025008 | 62 | 94 | 2.0 | 7.0 | 0.00 | 0.00 | 0.00 | 59 | 1010.2 |
| 20260505024522 | 62 | 143 | 3.0 | 7.0 | 0.00 | 0.00 | 0.00 | 59 | 1010.2 |
| 20260505024007 | 62 | 70 | 1.0 | 5.0 | 0.00 | 0.00 | 0.00 | 59 | 1010.2 |
| 20260505023507 | 62 | 68 | 2.0 | 7.0 | 0.00 | 0.00 | 0.00 | 59 | 1010.3 |
| 20260505023026 | 62 | 84 | 4.0 | 7.0 | 0.00 | 0.00 | 0.00 | 59 | 1010.3 |
| 20260505022506 | 62 | 48 | 1.0 | 5.0 | 0.00 | 0.00 | 0.00 | 59 | 1010.3 |
| 20260505022010 | 62 | 50 | 2.0 | 5.0 | 0.00 | 0.00 | 0.00 | 59 | 1010.2 |
| 20260505021527 | 62 | 88 | 1.0 | 5.0 | 0.00 | 0.00 | 0.00 | 59 | 1010.2 |
| 20260505021007 | 62 | 56 | 2.0 | 5.0 | 0.00 | 0.00 | 0.00 | 59 | 1010.2 |
| 20260505020508 | 62 | 70 | 1.0 | 6.0 | 0.00 | 0.00 | 0.00 | 58 | 1010.2 |
| 20260505020016 | 63 | 36 | 1.0 | 6.0 | 0.00 | 0.00 | 0.00 | 58 | 1010.1 |
| 20260505015507 | 63 | 70 | 2.0 | 6.0 | 0.00 | 0.00 | 0.00 | 58 | 1010.2 |
| 20260505015005 | 63 | 111 | 2.0 | 6.0 | 0.00 | 0.00 | 0.00 | 57 | 1010.2 |
| 20260505014524 | 63 | 75 | 4.0 | 6.0 | 0.00 | 0.00 | 0.00 | 57 | 1010.2 |
| 20260505014012 | 63 | 103 | 1.0 | 3.0 | 0.00 | 0.00 | 0.00 | 58 | 1010.2 |
| 20260505013507 | 63 | 119 | 0.0 | 4.0 | 0.00 | 0.00 | 0.00 | 58 | 1010.1 |
| 20260505013024 | 63 | 79 | 0.0 | 4.0 | 0.00 | 0.00 | 0.00 | 57 | 1010.0 |
| 20260505012507 | 63 | 83 | 1.0 | 4.0 | 0.00 | 0.00 | 0.00 | 56 | 1009.8 |
| 20260505012009 | 64 | 70 | 1.0 | 3.0 | 0.00 | 0.00 | 0.00 | 56 | 1009.7 |
| 20260505011526 | 64 | 120 | 1.0 | 4.0 | 0.00 | 0.00 | 0.00 | 56 | 1009.8 |
| 20260505011008 | 64 | 96 | 1.0 | 4.0 | 0.00 | 0.00 | 0.00 | 55 | 1009.8 |
| 20260505010512 | 64 | 103 | 0.0 | 7.0 | 0.00 | 0.00 | 0.00 | 55 | 1009.7 |
| 20260505010027 | 64 | 140 | 0.0 | 7.0 | 0.00 | 0.00 | 0.00 | 54 | 1009.8 |
| 20260505005507 | 64 | 172 | 2.0 | 11.0 | 0.00 | 0.00 | 0.00 | 54 | 1009.7 |
| 20260505005004 | 64 | 84 | 4.0 | 11.0 | 0.00 | 0.00 | 0.00 | 54 | 1009.7 |
| 20260505004521 | 65 | 92 | 3.0 | 7.0 | 0.00 | 0.00 | 0.00 | 53 | 1009.7 |
| 20260505004008 | 65 | 80 | 1.0 | 5.0 | 0.00 | 0.00 | 0.00 | 53 | 1009.7 |
| 20260505003508 | 65 | 82 | 2.0 | 11.0 | 0.00 | 0.00 | 0.00 | 53 | 1009.6 |
| 20260505003024 | 66 | 93 | 1.0 | 11.0 | 0.00 | 0.00 | 0.00 | 52 | 1009.6 |
| 20260505002508 | 66 | 121 | 2.0 | 11.0 | 0.00 | 0.00 | 0.00 | 52 | 1009.5 |
| 20260505002010 | 66 | 162 | 4.0 | 11.0 | 0.00 | 0.00 | 0.00 | 52 | 1009.4 |
| 20260505001528 | 66 | 85 | 4.0 | 7.0 | 0.00 | 0.00 | 0.00 | 52 | 1009.6 |
| 20260505001008 | 66 | 96 | 1.0 | 7.0 | 0.00 | 0.00 | 0.00 | 51 | 1009.7 |
| 20260505000507 | 66 | 85 | 2.0 | 6.0 | 0.00 | 0.00 | 0.00 | 51 | 1009.5 |
| 20260505000030 | 66 | 122 | 3.0 | 8.0 | 0.00 | 0.00 | 0.00 | 50 | 1009.5 |
| 20260504235508 | 66 | 248 | 2.0 | 8.0 | 0.00 | 0.00 | 0.00 | 50 | 1009.6 |
| 20260504235012 | 66 | 154 | 3.0 | 8.0 | 0.00 | 0.00 | 0.00 | 50 | 1009.6 |
| 20260504234532 | 67 | 193 | 4.0 | 7.0 | 0.00 | 0.00 | 0.00 | 50 | 1009.5 |
| 20260504234004 | 67 | 144 | 3.0 | 7.0 | 0.00 | 0.00 | 0.00 | 49 | 1009.4 |
| 20260504233506 | 67 | 150 | 2.0 | 7.0 | 0.00 | 0.00 | 0.00 | 49 | 1009.4 |
| 20260504233020 | 67 | 103 | 4.0 | 9.0 | 0.00 | 0.00 | 0.00 | 49 | 1009.4 |
| 20260504232508 | 67 | 202 | 4.0 | 9.0 | 0.00 | 0.00 | 0.00 | 48 | 1009.3 |
| 20260504232008 | 67 | 213 | 5.0 | 11.0 | 0.00 | 0.00 | 0.00 | 48 | 1009.4 |
| 20260504231525 | 67 | 151 | 4.0 | 9.0 | 0.00 | 0.00 | 0.00 | 49 | 1009.4 |
| 20260504231008 | 67 | 83 | 3.0 | 11.0 | 0.00 | 0.00 | 0.00 | 48 | 1009.3 |
| 20260504230511 | 68 | 149 | 4.0 | 11.0 | 0.00 | 0.00 | 0.00 | 48 | 1009.2 |
| 20260504230028 | 68 | 167 | 4.0 | 9.0 | 0.00 | 0.00 | 0.00 | 47 | 1009.2 |
| 20260504225513 | 68 | 173 | 2.0 | 10.0 | 0.00 | 0.00 | 0.00 | 47 | 1009.2 |
| 20260504225008 | 68 | 193 | 4.0 | 10.0 | 0.00 | 0.00 | 0.00 | 47 | 1009.3 |
| 20260504224529 | 68 | 188 | 6.0 | 12.0 | 0.00 | 0.00 | 0.00 | 46 | 1009.3 |
| 20260504224009 | 69 | 191 | 1.0 | 13.0 | 0.00 | 0.00 | 0.00 | 46 | 1009.2 |
| 20260504223511 | 69 | 89 | 7.0 | 18.0 | 0.00 | 0.00 | 0.00 | 45 | 1009.2 |
| 20260504223021 | 69 | 76 | 6.0 | 18.0 | 0.00 | 0.00 | 0.00 | 43 | 1009.1 |
| 20260504222508 | 70 | 110 | 1.0 | 11.0 | 0.00 | 0.00 | 0.00 | 43 | 1009.2 |
| 20260504222009 | 70 | 158 | 4.0 | 12.0 | 0.00 | 0.00 | 0.00 | 42 | 1009.4 |
| 20260504221523 | 70 | 113 | 2.0 | 16.0 | 0.00 | 0.00 | 0.00 | 42 | 1009.2 |
| 20260504221008 | 70 | 158 | 8.0 | 16.0 | 0.00 | 0.00 | 0.00 | 41 | 1009.1 |
| 20260504220509 | 70 | 210 | 5.0 | 14.0 | 0.00 | 0.00 | 0.00 | 41 | 1009.1 |
| 20260504220030 | 70 | 93 | 4.0 | 14.0 | 0.00 | 0.00 | 0.00 | 42 | 1009.1 |
| 20260504215508 | 69 | 153 | 3.0 | 11.0 | 0.00 | 0.00 | 0.00 | 42 | 1009.2 |
| 20260504215008 | 69 | 217 | 3.0 | 12.0 | 0.00 | 0.00 | 0.00 | 45 | 1009.2 |
| 20260504214530 | 69 | 150 | 7.0 | 12.0 | 0.00 | 0.00 | 0.00 | 45 | 1009.1 |
| 20260504214008 | 69 | 146 | 2.0 | 13.0 | 0.00 | 0.00 | 0.00 | 46 | 1009.1 |
| 20260504213507 | 69 | 143 | 5.0 | 13.0 | 0.00 | 0.00 | 0.00 | 46 | 1009.1 |
| 20260504213028 | 70 | 155 | 4.0 | 13.0 | 0.00 | 0.00 | 0.00 | 45 | 1009.1 |
| 20260504212508 | 69 | 83 | 2.0 | 10.0 | 0.00 | 0.00 | 0.00 | 45 | 1009.1 |
| 20260504212006 | 69 | 154 | 5.0 | 13.0 | 0.00 | 0.00 | 0.00 | 45 | 1009.1 |
| 20260504211511 | 70 | 188 | 3.0 | 13.0 | 0.00 | 0.00 | 0.00 | 46 | 1009.0 |
| 20260504211003 | 70 | 131 | 8.0 | 13.0 | 0.00 | 0.00 | 0.00 | 44 | 1009.0 |
| 20260504210503 | 69 | 86 | 7.0 | 18.0 | 0.00 | 0.00 | 0.00 | 46 | 1009.0 |
| 20260504210006 | 69 | 132 | 7.0 | 18.0 | 0.00 | 0.00 | 0.00 | 45 | 1009.1 |
| 20260504205506 | 69 | 199 | 5.0 | 12.0 | 0.00 | 0.00 | 0.00 | 46 | 1009.0 |
| 20260504205004 | 69 | 216 | 5.0 | 15.0 | 0.00 | 0.00 | 0.00 | 45 | 1009.0 |
| 20260504204514 | 69 | 138 | 10.0 | 20.0 | 0.00 | 0.00 | 0.00 | 45 | 1009.0 |
| 20260504204004 | 69 | 198 | 11.0 | 20.0 | 0.00 | 0.00 | 0.00 | 45 | 1009.1 |
| 20260504203506 | 69 | 86 | 4.0 | 14.0 | 0.00 | 0.00 | 0.00 | 47 | 1009.0 |
| 20260504203020 | 69 | 158 | 4.0 | 14.0 | 0.00 | 0.00 | 0.00 | 46 | 1009.1 |
| 20260504202504 | 69 | 144 | 6.0 | 13.0 | 0.00 | 0.00 | 0.00 | 46 | 1009.1 |
| 20260504202004 | 69 | 103 | 5.0 | 14.0 | 0.00 | 0.00 | 0.00 | 48 | 1009.1 |
| 20260504201516 | 69 | 77 | 7.0 | 14.0 | 0.00 | 0.00 | 0.00 | 45 | 1009.2 |
| 20260504201009 | 69 | 96 | 6.0 | 17.0 | 0.00 | 0.00 | 0.00 | 47 | 1009.1 |
| 20260504200505 | 68 | 93 | 7.0 | 17.0 | 0.00 | 0.00 | 0.00 | 47 | 1009.1 |
| 20260504200016 | 69 | 88 | 9.0 | 15.0 | 0.00 | 0.00 | 0.00 | 48 | 1009.1 |
| 20260504195506 | 69 | 77 | 5.0 | 14.0 | 0.00 | 0.00 | 0.00 | 47 | 1009.2 |
| 20260504195003 | 69 | 105 | 6.0 | 14.0 | 0.00 | 0.00 | 0.00 | 47 | 1009.2 |
| 20260504194513 | 69 | 78 | 8.0 | 14.0 | 0.00 | 0.00 | 0.00 | 47 | 1009.1 |
| 20260504194004 | 68 | 68 | 5.0 | 14.0 | 0.00 | 0.00 | 0.00 | 46 | 1009.3 |
| 20260504193507 | 68 | 60 | 4.0 | 8.0 | 0.00 | 0.00 | 0.00 | 48 | 1009.5 |
| 20260504193018 | 68 | 91 | 3.0 | 14.0 | 0.00 | 0.00 | 0.00 | 47 | 1009.5 |
| 20260504192504 | 68 | 87 | 6.0 | 14.0 | 0.00 | 0.00 | 0.00 | 46 | 1009.6 |
| 20260504192003 | 67 | 87 | 8.0 | 14.0 | 0.00 | 0.00 | 0.00 | 47 | 1009.8 |
| 20260504191523 | 68 | 81 | 6.0 | 12.0 | 0.00 | 0.00 | 0.00 | 46 | 1009.9 |
| 20260504191008 | 68 | 83 | 7.0 | 13.0 | 0.00 | 0.00 | 0.00 | 45 | 1009.9 |
| 20260504190504 | 68 | 122 | 2.0 | 13.0 | 0.00 | 0.00 | 0.00 | 47 | 1009.8 |
| 20260504190018 | 68 | 95 | 7.0 | 11.0 | 0.00 | 0.00 | 0.00 | 46 | 1009.9 |
| 20260504185504 | 68 | 180 | 4.0 | 12.0 | 0.00 | 0.00 | 0.00 | 45 | 1010.0 |
| 20260504185004 | 67 | 89 | 6.0 | 14.0 | 0.00 | 0.00 | 0.00 | 46 | 1010.1 |
| 20260504184512 | 67 | 120 | 7.0 | 17.0 | 0.00 | 0.00 | 0.00 | 45 | 1010.2 |
| 20260504184004 | 67 | 88 | 6.0 | 17.0 | 0.00 | 0.00 | 0.00 | 46 | 1010.3 |
| 20260504183504 | 67 | 94 | 8.0 | 12.0 | 0.00 | 0.00 | 0.00 | 44 | 1010.4 |
| 20260504183014 | 67 | 128 | 4.0 | 12.0 | 0.00 | 0.00 | 0.00 | 46 | 1010.4 |
| 20260504182510 | 67 | 116 | 6.0 | 12.0 | 0.00 | 0.00 | 0.00 | 45 | 1010.4 |
| 20260504182008 | 66 | 115 | 5.0 | 12.0 | 0.00 | 0.00 | 0.00 | 46 | 1010.4 |
| 20260504181518 | 67 | 78 | 7.0 | 11.0 | 0.00 | 0.00 | 0.00 | 45 | 1010.4 |
| 20260504181006 | 67 | 188 | 4.0 | 13.0 | 0.00 | 0.00 | 0.00 | 45 | 1010.5 |
| 20260504180507 | 67 | 118 | 7.0 | 13.0 | 0.00 | 0.00 | 0.00 | 45 | 1010.4 |
| 20260504180020 | 67 | 55 | 4.0 | 12.0 | 0.00 | 0.00 | 0.00 | 46 | 1010.4 |
| 20260504175504 | 67 | 70 | 5.0 | 10.0 | 0.00 | 0.00 | 0.00 | 44 | 1010.5 |
| 20260504175006 | 67 | 129 | 4.0 | 10.0 | 0.00 | 0.00 | 0.00 | 44 | 1010.6 |
| 20260504174520 | 67 | 88 | 5.0 | 15.0 | 0.00 | 0.00 | 0.00 | 45 | 1010.5 |
| 20260504174004 | 67 | 82 | 4.0 | 15.0 | 0.00 | 0.00 | 0.00 | 44 | 1010.6 |
| 20260504173504 | 67 | 187 | 4.0 | 14.0 | 0.00 | 0.00 | 0.00 | 44 | 1010.7 |
| 20260504173013 | 67 | 61 | 4.0 | 16.0 | 0.00 | 0.00 | 0.00 | 44 | 1010.8 |
| 20260504172505 | 67 | 91 | 8.0 | 18.0 | 0.00 | 0.00 | 0.00 | 44 | 1010.8 |
| 20260504172004 | 67 | 89 | 7.0 | 18.0 | 0.00 | 0.00 | 0.00 | 44 | 1011.0 |
| 20260504171518 | 67 | 69 | 3.0 | 17.0 | 0.00 | 0.00 | 0.00 | 43 | 1011.0 |
| 20260504171005 | 67 | 104 | 7.0 | 16.0 | 0.00 | 0.00 | 0.00 | 45 | 1010.9 |
| 20260504170508 | 66 | 162 | 4.0 | 13.0 | 0.00 | 0.00 | 0.00 | 44 | 1011.0 |
| 20260504151005 | 62 | 112 | 8.0 | 17.0 | 0.00 | 0.00 | 0.00 | 46 | 1012.0 |
| 20260504150508 | 62 | 203 | 2.0 | 15.0 | 0.00 | 0.00 | 0.00 | 46 | 1012.0 |
| 20260504141006 | 59 | 91 | 6.0 | 18.0 | 0.00 | 0.00 | 0.00 | 48 | 1012.6 |
| 20260504140507 | 59 | 127 | 7.0 | 18.0 | 0.00 | 0.00 | 0.00 | 47 | 1012.5 |
| 20260504130506 | 54 | 89 | 5.0 | 12.0 | 0.00 | 0.00 | 0.00 | 55 | 1013.0 |
| 20260504110504 | 39 | 205 | 0.0 | 0.0 | 0.00 | 0.00 | 0.00 | 81 | 1013.1 |
| 20260504100505 | 37 | 200 | 0.0 | 0.0 | 0.00 | 0.00 | 0.00 | 84 | 1013.4 |